GJONW EGNH-EGBO

Flight info

Callsign GJONW
Flight time 0h 36m
Altitude 10000
Route WAL/N0178F090
Aircraft BT36/L-BDFGLORY/S

Departure

Time 2026-04-18 20:18
Airport Blackpool Airport (EGNH)

Arrival

Time 2026-04-18 20:54
Airport Wolverhampton Halfpenny Green Airport (EGBO)
Time Latitude Longitude Altitude Speed Heading
2026-04-18 20:09 53.77581 -3.04356 34 ft 0 kts 175°
2026-04-18 20:13 53.77577 -3.04358 34 ft 2 kts 216°
2026-04-18 20:13 53.77593 -3.04369 34 ft 4 kts 24°
2026-04-18 20:13 53.77600 -3.04324 34 ft 5 kts 86°
2026-04-18 20:14 53.77602 -3.04251 34 ft 7 kts 90°
2026-04-18 20:14 53.77562 -3.04247 34 ft 10 kts 213°
2026-04-18 20:14 53.77483 -3.04330 34 ft 16 kts 210°
2026-04-18 20:14 53.77358 -3.04394 34 ft 22 kts 180°
2026-04-18 20:15 53.77230 -3.04301 32 ft 16 kts 114°
2026-04-18 20:15 53.77210 -3.04082 33 ft 21 kts 96°
2026-04-18 20:15 53.77193 -3.03816 35 ft 25 kts 96°
2026-04-18 20:15 53.77098 -3.03573 34 ft 27 kts 128°
2026-04-18 20:16 53.76972 -3.03307 31 ft 26 kts 117°
2026-04-18 20:16 53.76917 -3.03182 30 ft 3 kts 279°
2026-04-18 20:16 53.76918 -3.03185 30 ft 2 kts 287°
2026-04-18 20:16 53.76925 -3.03207 30 ft 0 kts 304°
2026-04-18 20:17 53.76947 -3.03258 30 ft 32 kts 307°
2026-04-18 20:17 53.77249 -3.03934 75 ft 99 kts 306°
2026-04-18 20:17 53.77668 -3.04988 363 ft 115 kts 299°
2026-04-18 20:18 53.78173 -3.06220 516 ft 134 kts 306°
2026-04-18 20:18 53.78690 -3.07577 736 ft 140 kts 289°
2026-04-18 20:18 53.78613 -3.09170 941 ft 143 kts 236°
2026-04-18 20:18 53.77735 -3.09897 1141 ft 154 kts 178°
2026-04-18 20:19 53.76743 -3.09124 1356 ft 164 kts 145°
2026-04-18 20:19 53.76120 -3.08370 1500 ft 168 kts 145°
2026-04-18 20:19 53.75151 -3.07200 1713 ft 173 kts 144°
2026-04-18 20:19 53.74163 -3.06020 1921 ft 175 kts 147°
2026-04-18 20:20 53.73067 -3.05104 2125 ft 177 kts 161°
2026-04-18 20:20 53.71867 -3.04663 2327 ft 177 kts 178°
2026-04-18 20:20 53.70646 -3.04845 2596 ft 175 kts 190°
2026-04-18 20:20 53.69453 -3.05194 2871 ft 173 kts 191°
2026-04-18 20:21 53.68265 -3.05536 3145 ft 173 kts 190°
2026-04-18 20:21 53.67075 -3.05865 3420 ft 173 kts 190°
2026-04-18 20:21 53.65885 -3.06186 3696 ft 173 kts 190°
2026-04-18 20:21 53.64693 -3.06515 3972 ft 174 kts 190°
2026-04-18 20:22 53.63507 -3.06845 4245 ft 170 kts 190°
2026-04-18 20:22 53.62366 -3.07155 4513 ft 163 kts 189°
2026-04-18 20:22 53.61259 -3.07455 4780 ft 160 kts 190°
2026-04-18 20:22 53.60167 -3.07751 5045 ft 158 kts 190°
2026-04-18 20:23 53.59102 -3.08043 5313 ft 157 kts 190°
2026-04-18 20:23 53.58028 -3.08335 5587 ft 156 kts 190°
2026-04-18 20:23 53.56954 -3.08627 5864 ft 156 kts 190°
2026-04-18 20:23 53.55884 -3.08919 6132 ft 156 kts 190°
2026-04-18 20:24 53.54812 -3.09211 6405 ft 156 kts 190°
2026-04-18 20:24 53.53736 -3.09503 6680 ft 157 kts 190°
2026-04-18 20:24 53.52659 -3.09796 6954 ft 157 kts 190°
2026-04-18 20:24 53.51582 -3.10089 7228 ft 158 kts 190°
2026-04-18 20:25 53.50494 -3.10384 7498 ft 158 kts 190°
2026-04-18 20:25 53.49406 -3.10679 7779 ft 159 kts 190°
2026-04-18 20:25 53.48316 -3.10975 8051 ft 159 kts 189°
2026-04-18 20:25 53.47221 -3.11273 8328 ft 160 kts 190°
2026-04-18 20:26 53.46122 -3.11570 8603 ft 160 kts 190°
2026-04-18 20:26 53.45022 -3.11867 8878 ft 161 kts 190°
2026-04-18 20:26 53.43915 -3.12168 9153 ft 161 kts 189°
2026-04-18 20:26 53.42803 -3.12469 9428 ft 162 kts 190°
2026-04-18 20:27 53.41689 -3.12769 9703 ft 162 kts 190°
2026-04-18 20:27 53.40573 -3.13071 9972 ft 164 kts 189°
2026-04-18 20:27 53.39395 -3.13307 9997 ft 178 kts 177°
2026-04-18 20:27 53.38234 -3.12497 10010 ft 187 kts 148°
2026-04-18 20:28 53.37112 -3.11324 10006 ft 193 kts 149°
2026-04-18 20:28 53.35972 -3.10152 10010 ft 196 kts 149°
2026-04-18 20:28 53.34798 -3.08953 10014 ft 198 kts 149°
2026-04-18 20:28 53.33620 -3.07749 10008 ft 199 kts 149°
2026-04-18 20:29 53.32434 -3.06540 10012 ft 200 kts 149°
2026-04-18 20:29 53.31246 -3.05328 10008 ft 200 kts 149°
2026-04-18 20:29 53.30059 -3.04118 10009 ft 200 kts 149°
2026-04-18 20:29 53.28867 -3.02905 10010 ft 200 kts 149°
2026-04-18 20:30 53.27676 -3.01693 10010 ft 201 kts 149°
2026-04-18 20:30 53.26484 -3.00480 10010 ft 201 kts 149°
2026-04-18 20:30 53.25292 -2.99270 10011 ft 201 kts 149°
2026-04-18 20:30 53.24105 -2.98064 10005 ft 199 kts 149°
2026-04-18 20:31 53.22944 -2.96890 10001 ft 191 kts 149°
2026-04-18 20:31 53.21822 -2.95750 9994 ft 186 kts 149°
2026-04-18 20:31 53.20730 -2.94641 9991 ft 182 kts 149°
2026-04-18 20:31 53.19655 -2.93553 9989 ft 180 kts 149°
2026-04-18 20:32 53.18601 -2.92485 9992 ft 178 kts 149°
2026-04-18 20:32 53.17543 -2.91415 9991 ft 177 kts 149°
2026-04-18 20:32 53.16489 -2.90349 9992 ft 177 kts 149°
2026-04-18 20:32 53.15438 -2.89287 9990 ft 177 kts 149°
2026-04-18 20:33 53.14388 -2.88226 9991 ft 176 kts 149°
2026-04-18 20:33 53.13339 -2.87168 9991 ft 176 kts 149°
2026-04-18 20:33 53.12291 -2.86109 9991 ft 176 kts 149°
2026-04-18 20:33 53.11243 -2.85054 9990 ft 176 kts 149°
2026-04-18 20:34 53.10194 -2.83997 9990 ft 176 kts 149°
2026-04-18 20:34 53.09138 -2.82932 9907 ft 181 kts 149°
2026-04-18 20:34 53.08047 -2.81836 9786 ft 185 kts 149°
2026-04-18 20:34 53.06941 -2.80723 9667 ft 187 kts 149°
2026-04-18 20:35 53.05838 -2.79614 9547 ft 188 kts 149°
2026-04-18 20:35 53.04716 -2.78486 9425 ft 189 kts 149°
2026-04-18 20:35 53.03591 -2.77357 9284 ft 190 kts 149°
2026-04-18 20:35 53.02450 -2.76212 9083 ft 193 kts 149°
2026-04-18 20:36 53.01293 -2.75051 8890 ft 194 kts 149°
2026-04-18 20:36 53.00133 -2.73888 8694 ft 195 kts 149°
2026-04-18 20:36 52.98970 -2.72724 8494 ft 195 kts 149°
2026-04-18 20:36 52.97806 -2.71558 8295 ft 195 kts 149°
2026-04-18 20:37 52.96646 -2.70398 8096 ft 195 kts 149°
2026-04-18 20:37 52.95482 -2.69234 7896 ft 195 kts 149°
2026-04-18 20:37 52.94317 -2.68071 7649 ft 196 kts 149°
2026-04-18 20:37 52.93146 -2.66901 7399 ft 197 kts 149°
2026-04-18 20:38 52.91970 -2.65729 7142 ft 197 kts 149°
2026-04-18 20:38 52.90796 -2.64557 6901 ft 197 kts 149°
2026-04-18 20:38 52.89682 -2.63454 6649 ft 181 kts 149°
2026-04-18 20:38 52.88644 -2.62420 6386 ft 168 kts 149°
2026-04-18 20:39 52.87675 -2.61452 6121 ft 158 kts 149°
2026-04-18 20:39 52.86750 -2.60530 5857 ft 154 kts 149°
2026-04-18 20:39 52.85900 -2.59680 5609 ft 132 kts 149°
2026-04-18 20:39 52.85057 -2.58840 5338 ft 150 kts 150°
2026-04-18 20:40 52.84150 -2.57949 5012 ft 153 kts 149°
2026-04-18 20:40 52.83224 -2.57025 4690 ft 157 kts 149°
2026-04-18 20:40 52.82276 -2.56084 4373 ft 160 kts 149°
2026-04-18 20:40 52.81320 -2.55135 4055 ft 161 kts 149°
2026-04-18 20:41 52.80360 -2.54184 3734 ft 161 kts 149°
2026-04-18 20:41 52.79414 -2.53247 3548 ft 153 kts 149°
2026-04-18 20:41 52.78521 -2.52362 3414 ft 146 kts 149°
2026-04-18 20:41 52.77665 -2.51520 3278 ft 141 kts 151°
2026-04-18 20:42 52.76814 -2.50800 3146 ft 138 kts 154°
2026-04-18 20:42 52.75958 -2.50114 3013 ft 136 kts 155°
2026-04-18 20:42 52.75138 -2.49464 2992 ft 126 kts 156°
2026-04-18 20:42 52.74359 -2.48895 2990 ft 118 kts 158°
2026-04-18 20:43 52.73618 -2.48398 2987 ft 112 kts 159°
2026-04-18 20:43 52.72897 -2.47914 2993 ft 115 kts 159°
2026-04-18 20:43 52.72130 -2.47403 3000 ft 122 kts 159°
2026-04-18 20:43 52.71327 -2.46871 3011 ft 126 kts 159°
2026-04-18 20:44 52.70497 -2.46323 3011 ft 130 kts 159°
2026-04-18 20:44 52.69645 -2.45758 3011 ft 133 kts 159°
2026-04-18 20:44 52.68782 -2.45188 3010 ft 135 kts 159°
2026-04-18 20:44 52.67907 -2.44611 3000 ft 136 kts 159°
2026-04-18 20:45 52.66997 -2.44014 2883 ft 144 kts 159°
2026-04-18 20:45 52.66052 -2.43392 2770 ft 148 kts 159°
2026-04-18 20:45 52.65082 -2.42758 2654 ft 151 kts 159°
2026-04-18 20:45 52.64099 -2.42114 2536 ft 153 kts 159°
2026-04-18 20:46 52.63122 -2.41474 2417 ft 154 kts 159°
2026-04-18 20:46 52.62127 -2.40823 2299 ft 154 kts 159°
2026-04-18 20:46 52.61129 -2.40169 2168 ft 155 kts 159°
2026-04-18 20:46 52.60127 -2.39514 2048 ft 155 kts 159°
2026-04-18 20:47 52.59137 -2.38867 2005 ft 150 kts 159°
2026-04-18 20:47 52.58185 -2.38244 1999 ft 145 kts 159°
2026-04-18 20:47 52.57257 -2.37636 1992 ft 142 kts 159°
2026-04-18 20:47 52.56372 -2.37054 2098 ft 132 kts 159°
2026-04-18 20:48 52.55542 -2.36506 2208 ft 126 kts 159°
2026-04-18 20:48 52.54744 -2.35979 2319 ft 121 kts 159°
2026-04-18 20:48 52.53944 -2.35456 2326 ft 126 kts 159°
2026-04-18 20:48 52.53103 -2.34909 2249 ft 135 kts 159°
2026-04-18 20:49 52.52202 -2.34321 2140 ft 143 kts 159°
2026-04-18 20:49 52.51261 -2.33708 2034 ft 147 kts 159°
2026-04-18 20:49 52.50315 -2.33088 2011 ft 144 kts 159°
2026-04-18 20:49 52.49394 -2.32486 2007 ft 141 kts 159°
2026-04-18 20:50 52.48498 -2.31858 2002 ft 140 kts 147°
2026-04-18 20:50 52.48016 -2.30530 1997 ft 139 kts 105°
2026-04-18 20:50 52.47759 -2.29030 1997 ft 138 kts 106°
2026-04-18 20:50 52.47500 -2.27519 1997 ft 137 kts 106°
2026-04-18 20:51 52.47238 -2.26012 1996 ft 137 kts 107°
2026-04-18 20:51 52.46978 -2.24510 1996 ft 137 kts 106°
2026-04-18 20:51 52.46962 -2.22995 1993 ft 136 kts 62°
2026-04-18 20:51 52.47537 -2.21879 1985 ft 119 kts 44°
2026-04-18 20:52 52.48253 -2.21235 1729 ft 123 kts
2026-04-18 20:52 52.49080 -2.21429 1522 ft 121 kts 333°
2026-04-18 20:52 52.49551 -2.22513 1118 ft 116 kts 283°
2026-04-18 20:52 52.49800 -2.23549 898 ft 88 kts 300°
2026-04-18 20:53 52.50113 -2.24330 684 ft 78 kts 308°
2026-04-18 20:53 52.50485 -2.24948 540 ft 74 kts 322°
2026-04-18 20:53 52.50906 -2.25365 399 ft 70 kts 334°
2026-04-18 20:53 52.51350 -2.25673 320 ft 66 kts 331°
2026-04-18 20:54 52.51755 -2.26009 285 ft 66 kts 344°
2026-04-18 20:54 52.52048 -2.26199 272 ft 20 kts 320°
2026-04-18 20:54 52.52047 -2.26180 272 ft 14 kts 155°
2026-04-18 20:54 52.51939 -2.26098 276 ft 20 kts 155°
2026-04-18 20:55 52.51784 -2.25986 279 ft 29 kts 157°
2026-04-18 20:55 52.51666 -2.25972 281 ft 17 kts 266°
2026-04-18 20:55 52.51682 -2.26247 279 ft 32 kts 277°
2026-04-18 20:55 52.51674 -2.26426 275 ft 11 kts 187°
2026-04-18 20:56 52.51600 -2.26349 279 ft 18 kts 131°
2026-04-18 20:56 52.51570 -2.26273 279 ft 0 kts